sat.trackr.live / text

‹ back to catalog

STARLINK-11572 [DTC]

NORAD 62990 · 2025-031K

PAYLOAD ACTIVE UNKNOWN

§ Identity

Operator
Country
US
Launch date
2025-02-11
Launch site
AFETR
Launch vehicle
Mass (kg)
RCS (m²)

Purposes: comms

External: N2YO · Heavens-Above · Gunter

§ Orbital elements

Epoch: 2026-05-24T17:31:25.668480Z

Period
91.67 min
Inclination
43.0032°
Eccentricity
0.0003836
Mean motion
15.70923580 rev/d
Perigee alt
353.7 km
Apogee alt
358.8 km
Semi-major
6,734.4 km
B*
1.1916e-3
RAAN
262.9266°
Arg perigee
262.7138°
Mean anomaly
97.3293°
Rev number
7,470

§ Raw data

STARLINK-11572 [DTC]1 62990U 25031K   26144.73015820  .00155940  00000+0  11916-2 0  99932 62990  43.0032 262.9266 0003836 262.7138  97.3293 15.70923580 74703

JSON: /api/v1/satellites/62990 · /tle

For live sub-satellite position, see the globe view (requires WebGL).

§ Visibility from observer

Set your observer location to see the next 7 days of passes ≥ 10°. The values pass through the URL so the page stays shareable.

No JS? Fill the form by hand. The geolocation button needs JavaScript.